Content
SEND FEEDBACK

Daily
Averages
Monthly
Summary
United Kingdom

STORNOWAY, SCOTLAND


Home > Europe > United Kingdom > Scotland
Elevation: 43 feet     Latitude: 58 13N     Longitude: 006 19W

WEATHER
 
SELECT A DAY
Number of Records: 246,920;   Date Range: 7/1/96 - 12/23/14
 
SHARE

PRINT THIS DATA

[ ← Previous Day ]
WEATHER ALMANAC - JULY 11, 2013
[ Next Day → ]
[ °C ]   °F
Weather ElementAverageHighLow
Temperature58.1 °F68 °F (4:20 pm)48 °F (4:50 am)
Dewpoint53.5 °F59 °F (4:50 pm)46.4 °F (4:20 am)
Humidity84.4 %100 % (3:50 am)68 % (1:20 pm)
Barometer30.31 in30.39 in (12:50 am)30.24 in (7:20 pm)
Wind Speed3.4 mph8.1 mph (11:50 am)
Weather ElementAverage
Visibility8.8 mi
Wind DirectionESE (109.2 °)

Weather ElementTotal
Precipitation---
Heating Degree Days7 (Base 65)
Growing Degree Days8 (Base 50)
Averaged from 66 records on July 11, 2013
WEATHER CONDITIONS BREAKOUT
WIND DIRECTION BREAKOUT
WEATHER BY HOUR - JULY 11, 2013
[ °C ]   °F
Local TimeTemperatureDewpointHumidityBarometerVisibilityWind DirectionWind SpeedGust SpeedPrecipitationEventsConditions
12:50 AM52.0 °F52.0 °F99 %30.38 in0.0 miENE (60°)1.2 mphFogFog
12:50 AM51.8 °F50.0 °F94 %30.39 in0.5 miCalmFogFog
1:20 AM53.6 °F50.0 °F88 %30.36 in0.2 miCalmFogFog
1:50 AM51.0 °F51.0 °F99 %30.37 in0.0 miESE (110°)3.5 mphFogFog
1:50 AM53.6 °F50.0 °F88 %30.36 in0.1 miCalmRainRain
2:20 AM51.8 °F48.2 °F88 %30.36 in0.2 miCalmFogFog
2:50 AM50.0 °F49.0 °F97 %30.36 in0.0 miWNW (300°)3.5 mphFogFog
2:50 AM51.8 °F48.2 °F88 %30.36 in0.2 miNW (320°)2.3 mphFogFog
3:20 AM51.8 °F48.2 °F88 %30.36 in0.1 miCalmFogFog
3:50 AM49.0 °F49.0 °F100 %30.35 in0.0 miWNW (300°)2.3 mphFogFog
3:50 AM50.0 °F48.2 °F94 %30.36 in0.1 miCalmFogFog
4:20 AM50.0 °F46.4 °F87 %30.36 in1.3 miCalmHaze
4:50 AM48.0 °F48.0 °F98 %30.34 in1.0 miSW (220°)1.2 mphFogFog
4:50 AM48.2 °F46.4 °F93 %30.33 in1.2 miCalmHaze
5:20 AM48.2 °F46.4 °F93 %30.33 in0.7 miCalmHaze
5:50 AM50.0 °F50.0 °F98 %30.33 in11.0 miWSW (240°)2.3 mphFogFog
5:50 AM50.0 °F46.4 °F87 %30.33 in6.2 miCalm
6:20 AM53.6 °F50.0 °F88 %30.33 in6.2 miCalmPartly Cloudy
6:50 AM52.0 °F52.0 °F99 %30.33 in31.0 miWest (260°)1.2 mph
6:50 AM53.6 °F51.8 °F94 %30.33 in6.2 miCalmFogPartly Cloudy
7:20 AM55.4 °F51.8 °F88 %30.33 in6.2 miCalmFogPartly Cloudy
7:50 AM54.0 °F54.0 °F100 %30.33 in28.0 miEast (80°)2.3 mph
7:50 AM57.2 °F53.6 °F88 %30.33 in6.2 miCalmFogPartly Cloudy
8:20 AM59.0 °F53.6 °F82 %30.33 in6.2 miCalmFogPartly Cloudy
8:50 AM56.0 °F55.0 °F95 %30.34 in31.0 miSouth (170°)5.8 mphScattered Clouds
8:50 AM57.2 °F53.6 °F88 %30.33 in6.2 miSSE (160°)4.6 mphScattered Clouds
9:20 AM59.0 °F53.6 °F82 %30.33 in6.2 miSSE (150°)5.8 mphScattered Clouds
9:50 AM57.0 °F55.0 °F89 %30.33 in31.0 miSSE (160°)5.8 mphPartly Cloudy
9:50 AM60.8 °F55.4 °F82 %30.33 in6.2 miSSE (150°)6.9 mphScattered Clouds
10:20 AM62.6 °F55.4 °F77 %30.33 in6.2 miSE (140°)6.9 mphScattered Clouds
10:50 AM59.0 °F56.0 °F85 %30.32 in28.0 miSouth (180°)5.8 mphPartly Cloudy
10:50 AM62.6 °F57.2 °F82 %30.33 in6.2 miSSE (160°)5.8 mphScattered Clouds
11:20 AM64.4 °F57.2 °F77 %30.30 in6.2 miSSE (150°)6.9 mphScattered Clouds
11:50 AM64.4 °F55.4 °F73 %30.33 in6.2 miSSE (160°)6.9 mphPartly Cloudy
11:50 AM59.0 °F56.0 °F85 %30.32 in19.0 miSSE (160°)8.1 mphScattered Clouds
12:20 PM64.4 °F57.2 °F77 %30.30 in6.2 miSSE (160°)5.8 mphPartly Cloudy
12:50 PM59.0 °F54.0 °F80 %30.31 in31.0 miSouth (170°)8.1 mphPartly Cloudy
12:50 PM62.6 °F55.4 °F77 %30.30 in6.2 miSouth (170°)6.9 mphPartly Cloudy
1:20 PM66.2 °F55.4 °F68 %30.30 in6.2 miSSE (150°)6.9 mphPartly Cloudy
1:50 PM61.0 °F56.0 °F78 %30.31 in28.0 miSSE (160°)6.9 mph
1:50 PM66.2 °F55.4 °F68 %30.30 in6.2 miSSE (160°)5.8 mphPartly Cloudy
2:20 PM64.4 °F57.2 °F77 %30.30 in6.2 miSSE (160°)5.8 mphPartly Cloudy
2:50 PM64.4 °F57.2 °F77 %30.30 in6.2 miSSE (150°)5.8 mphPartly Cloudy
2:50 PM61.0 °F56.0 °F80 %30.30 in25.0 miSSE (160°)5.8 mphScattered Clouds
3:20 PM64.4 °F57.2 °F77 %30.30 in6.2 miSSE (160°)5.8 mphPartly Cloudy
3:50 PM62.0 °F57.0 °F79 %30.30 in22.0 miSSE (160°)6.9 mph
3:50 PM66.2 °F57.2 °F73 %30.30 in6.2 miSSE (160°)6.9 mphPartly Cloudy
4:20 PM68.0 °F57.2 °F68 %30.30 in6.2 miSSE (150°)5.8 mphPartly Cloudy
4:50 PM68.0 °F59.0 °F73 %30.27 in6.2 miSSE (150°)4.6 mphPartly Cloudy
5:20 PM66.2 °F59.0 °F78 %30.27 in6.2 miSE (140°)4.6 mphPartly Cloudy
5:50 PM62.6 °F57.2 °F82 %30.27 in6.2 miSSE (160°)5.8 mphPartly Cloudy
6:20 PM64.4 °F57.2 °F77 %30.27 in6.2 miSSE (150°)5.8 mphPartly Cloudy
6:50 PM62.0 °F56.0 °F74 %30.26 in28.0 miSSE (150°)5.8 mph
6:50 PM64.4 °F57.2 °F77 %30.27 in6.2 miSSE (150°)4.6 mphPartly Cloudy
7:20 PM64.4 °F57.2 °F77 %30.24 in6.2 miSSE (150°)4.6 mphPartly Cloudy
7:50 PM61.0 °F58.0 °F85 %30.25 in16.0 miNE (40°)3.5 mph
7:50 PM62.6 °F55.4 °F77 %30.24 in6.2 miVariable2.3 mph
8:20 PM60.8 °F55.4 °F82 %30.24 in6.2 miNNE (30°)2.3 mph
8:50 PM60.8 °F55.4 °F82 %30.24 in6.2 miSSE (160°)2.3 mph
9:20 PM59.0 °F55.4 °F88 %30.24 in6.2 miCalm
9:50 PM58.0 °F54.0 °F84 %30.25 in16.0 miSW (230°)1.2 mph
9:50 PM59.0 °F53.6 °F82 %30.24 in6.2 miCalm
10:20 PM57.2 °F53.6 °F88 %30.24 in6.2 miVariable2.3 mph
10:50 PM57.2 °F51.8 °F82 %30.24 in6.2 miCalm
11:20 PM55.4 °F51.8 °F88 %30.24 in6.2 miCalm
11:50 PM55.4 °F50.0 °F82 %30.24 in6.2 miCalm
Hourly data recorded from EGPO, located miles away from Stornoway, Scotland







STORIES FROM OUR PARTNERS